STARLINK-2757, 48604

Orbit data source: Space-Track

STARLINK-2757, 48604 is a payload satellite owned by SpaceX/Seattle (US) in LEO that was launched on Sat, 15 May 2021 UTC via an FALCON 9 launch vehicle from the Air Force Eastern Test Range (AFETR). Payload-class satellites include a variety of spacecraft equipped with specific instruments for various scientific and technological missions. These include communications satellites like Starlink; space stations such as the ISS; scientific satellites like the Hubble; Earth observation satellites from companies like Planet Labs, Umbra, and HawkEye 360; GPS; miniature CubeSats for education and research; and military/defense satellites.

Loading next visibility...
Identifier
48604, 2021-041BD
Orbit
LEO
Country
Flag of USUS
Related business
Manufacturer
SpaceX/Seattle
Mission
Operational Commercial Communications
Bus & Motor
STARLINK, Unknown motor
Mass
260 kg wet, ~248 kg dry
Launch date (UTC)
2021-05-15 (5 years ago)
Launch vehicle
FALCON 9
Launch site
Air Force Eastern Test Range (AFETR)
Object type
Payload
Rocket body
Debris
Shape & HBR
Box + 1 Pan, 10.1 m
Radar Cross Section
13.562 m², Large (>1 m²)

Expand to show TLE details & history
Last TLE update: 2 days ago

TLE from 2 days ago
0 STARLINK-2757
1 48604U 21041BD  26171.32236955  .00001077  00000-0  46463-4 0  9994
2 48604  53.1616  31.4577 0001189 106.5668 253.5464 15.31705688281941
Epoch: 2026-06-20T07:44Z
TLE epoch observation values (Epoch: 2026-06-20T07:44:12.729Z)
Latitude
-0.00001°
Longitude
6.866°
Altitude
471.854 km
Speed
7.631 km/s
True Right ascension
02h 05m 49s
True Declination
0° 00' 00"
Sunlit
Object was in daylight at epoch
Visualization orbit readout
Latitude
Unknown
Longitude
Unknown
Altitude
Unknown
Speed
Unknown
Apparent Right ascension
Unknown
Apparent Declination
Unknown
Sunlit
N/A
Visualization observer readout
Local Sidereal Time
21:35:41
Azimuth
Unknown
Elevation
Unknown
Doppler factor
Unknown
Orbital elements
Apogee altitude
471.794 km
Perigee altitude
470.165 km
Semi-major axis
6,849.116 km
Eccentricity
0.00012
Inclination
53.1616°
RAAN
31.4577°
Arg. of periapsis
106.5668°
True anomaly
253.53333°
Mean anomaly
253.5464°
Eccentric anomaly
253.53987°
Mean motion
3.82905 °/min
Orbital period
94.02 mins
BSTAR
0.000046463
Loading maneuver chart data...
Computing Atmospheric mass density...

Documentation

Showing up to 5 results
|